Weather Roundup
Issued by NWS Chicago, IL

Home | Current Version | Previous Version | Graphics & Text | Print | Product List | Glossary On
Versions: 1 2 3 4 5 6 7 8 9 10 11 12 13 14 15 16 17 18 19 20 21 22 23 24 25 26 27 28 29 30 31 32 33 34 35 36 37 38 39 40 41 42 43 44 45 46 47 48 49 50
000
NZUS59 KLOT 211910
HRRLOT

CHICAGO AREA WEATHER ROUNDUP
NATIONAL WEATHER SERVICE CHICAGO/ROMEOVILLE IL
100 PM CST SUN DEC 21 2014

NOTE: "FAIR" INDICATES FEW OR NO CLOUDS BELOW 12,000 FEET WITH NO
SIGNIFICANT WEATHER AND/OR OBSTRUCTIONS TO VISIBILITY.

* THESE STATIONS ARE NOT UNDER NWS QUALITY CONTROL. THEY ALSO MAY NOT
  REPORT WEATHER SUCH AS PRECIPITATION OR FOG.

ILZ005-006-012>014-019>023-212000-
NORTHEAST ILLINOIS

CITY           SKY/WX    TMP DP  RH WIND       PRES   REMARKS
OHARE          CLOUDY    36  29  75 S13       30.11F
MIDWAY         CLOUDY    37  28  70 S13G21    30.13F
AURORA         CLOUDY    38  30  73 S14       30.10F HAZE
LANSING*       CLOUDY    35  28  76 S13       30.15F WCI  26
JOLIET*        CLOUDY    36  29  75 S9        30.13F
WAUKEGAN       CLOUDY    35  28  75 S14       30.10F WCI  26
DUPAGE AIRPORT CLOUDY    36  29  75 S13       30.10F
WHEELING       CLOUDY    36  28  73 S12       30.13F
KANKAKEE*      CLOUDY    37  30  76 S10       30.15F
MORRIS*        CLOUDY    37  32  81 S14       30.11F
LEWIS AIRPORT* CLOUDY    36  30  78 S14       30.12F
NORTHERLY IS     N/A     35  27  73 S13         N/A  WCI  26
$$

WIZ051-052-058>065-066-070>072-212000-
SOUTHEAST WISCONSIN

CITY           SKY/WX    TMP DP  RH WIND       PRES   REMARKS
MILWAUKEE      CLOUDY    36  29  75 S12       30.09F
KENOSHA*       CLOUDY    36  30  79 S13       30.10F
RACINE*        CLOUDY    36  30  79 S10       30.11F
BURLINGTON     CLOUDY    34  29  84 S10       30.07F WCI  26
WAUKESHA       CLOUDY    34  30  86 S12       30.07F FOG     WCI  25
WEST BEND      CLOUDY    34  30  86 S9        30.05F WCI  26
$$

INZ001>003-010>013-019-020-212000-
NORTHWEST INDIANA

CITY           SKY/WX    TMP DP  RH WIND       PRES   REMARKS
GARY*          CLOUDY    36  25  64 SE12      30.15F
MICHIGAN CITY* NOT AVBL
RENSSELAER*    NOT AVBL
VALPARAISO     CLOUDY    34  26  72 S9        30.17F WCI  27
$$

LMZ740>746-212000-
SOUTHERN LAKE MICHIGAN

STATION/POSITION TIME  SKY/WX   TEMP WIND        PRES    VSBY
                                AIR  DIR/SP/G
                 (UTC)          (F)  (DEG/KT/KT) (MB)    (MI)
HARRISON CRIB    1900            34  180/ 17/ 20   N/A
BURNHAM HARBOR   1900            35  170/ 11/ 13   N/A
CALUMET HARBOR   1900            35  160/ 10/ 14 1019.5F
BURNS HARBOR     NOT AVBL
MICHIGAN CITY    NOT AVBL
$$

ABBREVIATIONS USED IN REMARKS
   TC - TEMPERATURE IN CELSIUS
  WCI - WIND CHILL INDEX
   HX - HEAT INDEX
  VSB - VISIBILITY
$$


USA.gov is the U.S. government's official web portal to all federal, state and local government web resources and services.